Time,TemperatureF,DewpointF,PressureIn,WindDirection,WindDirectionDegrees,WindSpeedMPH,WindSpeedGustMPH,Humidity,HourlyPrecipIn,Conditions,Clouds,dailyrainin,SoftwareType,DateUTC
2013-03-29 00:01:00,39.4,25.9,30.24,West,280,2.0,3.0,58,0.00,NA,NA,0.00,WeatherLink_script,2013-03-29 04:01:00,
2013-03-29 00:02:00,39.4,25.9,30.24,West,280,1.5,2.0,58,0.00,NA,NA,0.00,WeatherLink_script,2013-03-29 04:02:00,
2013-03-29 00:07:00,39.6,26.1,30.24,West,280,2.1,3.0,58,0.00,NA,NA,0.00,WeatherLink_script,2013-03-29 04:07:00,
2013-03-29 00:10:00,39.7,25.7,30.24,West,280,2.8,4.0,57,0.00,NA,NA,0.00,WeatherLink_script,2013-03-29 04:10:00,
2013-03-29 00:15:00,39.9,26.3,30.24,West,281,2.0,3.0,58,0.00,NA,NA,0.00,WeatherLink_script,2013-03-29 04:15:00,
2013-03-29 00:20:00,39.9,25.9,30.24,WNW,282,2.3,4.0,57,0.00,NA,NA,0.00,WeatherLink_script,2013-03-29 04:20:00,
2013-03-29 00:25:00,39.9,26.3,30.24,NW,323,0.9,2.0,58,0.00,NA,NA,0.00,WeatherLink_script,2013-03-29 04:25:00,
2013-03-29 00:28:00,39.9,26.3,30.24,NW,323,0.9,2.0,58,0.00,NA,NA,0.00,WeatherLink_script,2013-03-29 04:28:00,
2013-03-29 00:33:00,39.7,26.2,30.24,NW,323,1.2,3.0,58,0.00,NA,NA,0.00,WeatherLink_script,2013-03-29 04:33:00,
2013-03-29 00:38:00,39.7,26.2,30.24,NW,323,1.2,2.0,58,0.00,NA,NA,0.00,WeatherLink_script,2013-03-29 04:38:00,
2013-03-29 00:43:00,39.7,26.2,30.24,NW,326,2.2,3.0,58,0.00,NA,NA,0.00,WeatherLink_script,2013-03-29 04:43:00,
2013-03-29 00:48:00,39.6,26.1,30.24,NW,323,0.2,1.0,58,0.00,NA,NA,0.00,WeatherLink_script,2013-03-29 04:48:00,
2013-03-29 00:53:00,39.6,26.1,30.24,NW,323,0.6,2.0,58,0.00,NA,NA,0.00,WeatherLink_script,2013-03-29 04:53:00,
2013-03-29 00:58:00,39.7,25.7,30.24,NW,323,0.5,2.0,57,0.00,NA,NA,0.00,WeatherLink_script,2013-03-29 04:58:00,
2013-03-29 01:03:00,39.9,25.9,30.24,NW,323,0.0,0.0,57,0.00,NA,NA,0.00,WeatherLink_script,2013-03-29 05:03:00,
2013-03-29 01:09:00,39.9,26.3,30.24,NW,323,1.2,2.0,58,0.00,NA,NA,0.00,WeatherLink_script,2013-03-29 05:09:00,
2013-03-29 01:14:00,39.9,25.9,30.24,NW,323,0.9,2.0,57,0.00,NA,NA,0.00,WeatherLink_script,2013-03-29 05:14:00,
2013-03-29 01:20:00,40.0,26.0,30.24,NW,323,0.0,0.0,57,0.00,NA,NA,0.00,WeatherLink_script,2013-03-29 05:20:00,
2013-03-29 01:25:00,40.0,26.0,30.24,NW,323,1.0,2.0,57,0.00,NA,NA,0.00,WeatherLink_script,2013-03-29 05:25:00,
2013-03-29 01:30:00,40.0,26.0,30.24,NW,323,0.8,3.0,57,0.00,NA,NA,0.00,WeatherLink_script,2013-03-29 05:30:00,
2013-03-29 01:35:00,40.0,26.0,30.25,NW,323,0.3,1.0,57,0.00,NA,NA,0.00,WeatherLink_script,2013-03-29 05:35:00,
2013-03-29 01:40:00,40.0,26.0,30.25,WNW,301,0.8,2.0,57,0.00,NA,NA,0.00,WeatherLink_script,2013-03-29 05:40:00,
2013-03-29 01:45:00,40.0,26.0,30.24,WNW,302,0.4,1.0,57,0.00,NA,NA,0.00,WeatherLink_script,2013-03-29 05:45:00,
2013-03-29 01:50:00,39.9,26.0,30.24,WNW,302,0.3,2.0,57,0.00,NA,NA,0.00,WeatherLink_script,2013-03-29 05:50:00,
2013-03-29 01:56:00,39.9,25.9,30.24,WNW,301,0.7,2.0,57,0.00,NA,NA,0.00,WeatherLink_script,2013-03-29 05:56:00,
2013-03-29 02:01:00,39.8,25.9,30.24,WNW,301,1.4,3.0,57,0.00,NA,NA,0.00,WeatherLink_script,2013-03-29 06:01:00,
2013-03-29 02:07:00,39.7,25.7,30.25,WNW,302,0.6,2.0,57,0.00,NA,NA,0.00,WeatherLink_script,2013-03-29 06:07:00,
2013-03-29 02:12:00,39.7,25.7,30.25,WNW,301,1.7,3.0,57,0.00,NA,NA,0.00,WeatherLink_script,2013-03-29 06:12:00,
2013-03-29 02:18:00,39.7,26.1,30.24,WNW,294,1.9,3.0,58,0.00,NA,NA,0.00,WeatherLink_script,2013-03-29 06:18:00,
2013-03-29 02:23:00,39.6,26.1,30.24,WNW,294,1.5,2.0,58,0.00,NA,NA,0.00,WeatherLink_script,2013-03-29 06:23:00,
2013-03-29 02:28:00,39.6,26.1,30.24,WNW,294,0.2,1.0,58,0.00,NA,NA,0.00,WeatherLink_script,2013-03-29 06:28:00,
2013-03-29 02:33:00,39.6,26.1,30.24,WNW,294,0.6,1.0,58,0.00,NA,NA,0.00,WeatherLink_script,2013-03-29 06:33:00,
2013-03-29 02:38:00,39.6,26.1,30.24,WNW,294,1.4,2.0,58,0.00,NA,NA,0.00,WeatherLink_script,2013-03-29 06:38:00,
2013-03-29 02:43:00,39.6,26.1,30.25,WNW,294,1.7,3.0,58,0.00,NA,NA,0.00,WeatherLink_script,2013-03-29 06:43:00,
2013-03-29 02:48:00,39.6,26.5,30.24,WNW,294,1.1,2.0,59,0.00,NA,NA,0.00,WeatherLink_script,2013-03-29 06:48:00,
2013-03-29 02:53:00,39.6,26.5,30.24,WNW,294,1.5,2.0,59,0.00,NA,NA,0.00,WeatherLink_script,2013-03-29 06:53:00,
2013-03-29 02:58:00,39.6,26.5,30.24,WNW,294,1.8,3.0,59,0.00,NA,NA,0.00,WeatherLink_script,2013-03-29 06:58:00,
2013-03-29 03:03:00,39.6,26.5,30.24,WNW,294,0.7,2.0,59,0.00,NA,NA,0.00,WeatherLink_script,2013-03-29 07:03:00,
2013-03-29 03:08:00,39.6,26.5,30.24,WNW,294,1.3,2.0,59,0.00,NA,NA,0.00,WeatherLink_script,2013-03-29 07:08:00,
2013-03-29 03:13:00,39.4,26.3,30.24,WNW,294,1.4,3.0,59,0.00,NA,NA,0.00,WeatherLink_script,2013-03-29 07:13:00,
2013-03-29 03:18:00,39.4,26.3,30.24,WNW,294,1.4,3.0,59,0.00,NA,NA,0.00,WeatherLink_script,2013-03-29 07:18:00,
2013-03-29 03:23:00,39.4,26.3,30.24,WNW,294,0.8,2.0,59,0.00,NA,NA,0.00,WeatherLink_script,2013-03-29 07:23:00,
2013-03-29 03:29:00,39.4,26.3,30.24,WNW,294,0.8,2.0,59,0.00,NA,NA,0.00,WeatherLink_script,2013-03-29 07:29:00,
2013-03-29 03:34:00,39.4,26.3,30.24,WNW,294,0.1,1.0,59,0.00,NA,NA,0.00,WeatherLink_script,2013-03-29 07:34:00,
2013-03-29 03:39:00,39.4,26.7,30.24,WNW,294,0.6,1.0,60,0.00,NA,NA,0.00,WeatherLink_script,2013-03-29 07:39:00,
2013-03-29 03:44:00,39.4,26.3,30.24,WNW,290,1.6,3.0,59,0.00,NA,NA,0.00,WeatherLink_script,2013-03-29 07:44:00,
2013-03-29 03:50:00,39.4,26.3,30.24,WNW,290,0.5,2.0,59,0.00,NA,NA,0.00,WeatherLink_script,2013-03-29 07:50:00,
2013-03-29 03:55:00,39.4,26.3,30.23,WNW,290,1.2,2.0,59,0.00,NA,NA,0.00,WeatherLink_script,2013-03-29 07:55:00,
2013-03-29 04:00:00,39.2,26.5,30.23,West,269,3.5,4.0,60,0.00,NA,NA,0.00,WeatherLink_script,2013-03-29 08:00:00,
2013-03-29 04:05:00,38.7,26.0,30.22,West,262,3.2,4.0,60,0.00,NA,NA,0.00,WeatherLink_script,2013-03-29 08:05:00,
2013-03-29 04:11:00,38.2,25.9,30.23,West,262,1.9,3.0,61,0.00,NA,NA,0.00,WeatherLink_script,2013-03-29 08:11:00,
2013-03-29 04:16:00,38.0,26.1,30.23,West,262,1.5,3.0,62,0.00,NA,NA,0.00,WeatherLink_script,2013-03-29 08:16:00,
2013-03-29 04:21:00,37.8,25.9,30.23,West,262,1.9,3.0,62,0.00,NA,NA,0.00,WeatherLink_script,2013-03-29 08:21:00,
2013-03-29 04:26:00,37.8,26.0,30.22,West,261,1.4,2.0,62,0.00,NA,NA,0.00,WeatherLink_script,2013-03-29 08:26:00,
2013-03-29 04:31:00,37.9,26.1,30.23,West,262,1.5,3.0,62,0.00,NA,NA,0.00,WeatherLink_script,2013-03-29 08:31:00,
2013-03-29 04:36:00,37.9,26.1,30.23,West,261,0.8,2.0,62,0.00,NA,NA,0.00,WeatherLink_script,2013-03-29 08:36:00,
2013-03-29 04:41:00,37.9,26.1,30.23,West,262,0.6,1.0,62,0.00,NA,NA,0.00,WeatherLink_script,2013-03-29 08:41:00,
2013-03-29 04:46:00,38.0,25.8,30.23,West,262,0.1,1.0,61,0.00,NA,NA,0.00,WeatherLink_script,2013-03-29 08:46:00,
2013-03-29 04:51:00,38.0,26.1,30.23,West,262,0.4,1.0,62,0.00,NA,NA,0.00,WeatherLink_script,2013-03-29 08:51:00,
2013-03-29 04:56:00,38.0,26.1,30.23,West,262,1.0,2.0,62,0.00,NA,NA,0.00,WeatherLink_script,2013-03-29 08:56:00,
2013-03-29 05:01:00,38.0,26.1,30.23,West,262,1.0,2.0,62,0.00,NA,NA,0.00,WeatherLink_script,2013-03-29 09:01:00,
2013-03-29 05:06:00,38.2,25.9,30.23,West,262,0.4,1.0,61,0.00,NA,NA,0.00,WeatherLink_script,2013-03-29 09:06:00,
2013-03-29 05:11:00,38.3,26.0,30.23,West,261,1.8,3.0,61,0.00,NA,NA,0.00,WeatherLink_script,2013-03-29 09:11:00,
2013-03-29 05:16:00,38.4,26.1,30.23,West,262,0.7,2.0,61,0.00,NA,NA,0.00,WeatherLink_script,2013-03-29 09:16:00,
2013-03-29 05:21:00,38.6,25.9,30.23,West,262,0.6,2.0,60,0.00,NA,NA,0.00,WeatherLink_script,2013-03-29 09:21:00,
2013-03-29 05:26:00,38.7,26.0,30.23,West,262,0.1,1.0,60,0.00,NA,NA,0.00,WeatherLink_script,2013-03-29 09:26:00,
2013-03-29 05:31:00,38.7,25.6,30.23,West,262,0.5,1.0,59,0.00,NA,NA,0.00,WeatherLink_script,2013-03-29 09:31:00,
2013-03-29 05:36:00,38.9,25.8,30.23,West,262,1.2,2.0,59,0.00,NA,NA,0.00,WeatherLink_script,2013-03-29 09:36:00,
2013-03-29 05:41:00,39.0,25.9,30.23,West,262,0.5,1.0,59,0.00,NA,NA,0.00,WeatherLink_script,2013-03-29 09:41:00,
2013-03-29 05:46:00,39.2,26.1,30.23,West,262,0.8,2.0,59,0.00,NA,NA,0.00,WeatherLink_script,2013-03-29 09:46:00,
2013-03-29 05:51:00,39.3,26.2,30.23,West,262,0.3,2.0,59,0.00,NA,NA,0.00,WeatherLink_script,2013-03-29 09:51:00,
2013-03-29 05:56:00,39.4,26.3,30.23,West,262,0.7,2.0,59,0.00,NA,NA,0.00,WeatherLink_script,2013-03-29 09:56:00,
2013-03-29 06:02:00,39.4,25.9,30.23,West,261,1.5,3.0,58,0.00,NA,NA,0.00,WeatherLink_script,2013-03-29 10:02:00,
2013-03-29 06:07:00,39.5,25.9,30.23,West,262,0.4,2.0,58,0.00,NA,NA,0.00,WeatherLink_script,2013-03-29 10:07:00,
2013-03-29 06:12:00,39.4,26.3,30.24,West,262,2.2,3.0,59,0.00,NA,NA,0.00,WeatherLink_script,2013-03-29 10:12:00,
2013-03-29 06:17:00,39.3,26.2,30.24,West,261,1.0,2.0,59,0.00,NA,NA,0.00,WeatherLink_script,2013-03-29 10:17:00,
2013-03-29 06:22:00,39.3,26.1,30.24,West,262,2.4,4.0,59,0.00,NA,NA,0.00,WeatherLink_script,2013-03-29 10:22:00,
2013-03-29 06:27:00,39.3,25.8,30.24,SSW,204,1.7,3.0,58,0.00,NA,NA,0.00,WeatherLink_script,2013-03-29 10:27:00,
2013-03-29 06:33:00,39.3,25.8,30.23,SSW,204,0.9,2.0,58,0.00,NA,NA,0.00,WeatherLink_script,2013-03-29 10:33:00,
2013-03-29 06:38:00,39.1,26.0,30.24,SSW,204,0.6,2.0,59,0.00,NA,NA,0.00,WeatherLink_script,2013-03-29 10:38:00,
2013-03-29 06:43:00,39.1,26.0,30.24,SSW,204,0.9,2.0,59,0.00,NA,NA,0.00,WeatherLink_script,2013-03-29 10:43:00,
2013-03-29 06:48:00,39.1,26.0,30.24,SSW,204,0.6,1.0,59,0.00,NA,NA,0.00,WeatherLink_script,2013-03-29 10:48:00,
2013-03-29 06:53:00,39.0,25.5,30.25,SSW,204,0.3,1.0,58,0.00,NA,NA,0.00,WeatherLink_script,2013-03-29 10:53:00,
2013-03-29 06:59:00,38.9,25.8,30.24,SSW,204,0.5,1.0,59,0.00,NA,NA,0.00,WeatherLink_script,2013-03-29 10:59:00,
2013-03-29 07:04:00,38.9,25.8,30.24,SSW,204,0.8,2.0,59,0.00,NA,NA,0.00,WeatherLink_script,2013-03-29 11:04:00,
2013-03-29 07:10:00,38.8,25.7,30.24,SSW,204,0.5,1.0,59,0.00,NA,NA,0.00,WeatherLink_script,2013-03-29 11:10:00,
2013-03-29 07:15:00,38.7,26.0,30.25,SSW,204,1.1,3.0,60,0.00,NA,NA,0.00,WeatherLink_script,2013-03-29 11:15:00,
2013-03-29 07:21:00,38.9,26.2,30.25,SSW,206,2.0,4.0,60,0.00,NA,NA,0.00,WeatherLink_script,2013-03-29 11:21:00,
2013-03-29 07:26:00,38.8,26.5,30.25,SW,222,1.9,3.0,61,0.00,NA,NA,0.00,WeatherLink_script,2013-03-29 11:26:00,
2013-03-29 07:31:00,38.7,26.8,30.26,SW,222,2.2,3.0,62,0.00,NA,NA,0.00,WeatherLink_script,2013-03-29 11:31:00,
2013-03-29 07:37:00,38.9,27.0,30.25,SW,228,1.9,3.0,62,0.00,NA,NA,0.00,WeatherLink_script,2013-03-29 11:37:00,
2013-03-29 07:42:00,39.0,27.1,30.25,SW,228,1.1,2.0,62,0.00,NA,NA,0.00,WeatherLink_script,2013-03-29 11:42:00,
2013-03-29 07:47:00,39.1,26.8,30.26,SW,228,1.4,2.0,61,0.00,NA,NA,0.00,WeatherLink_script,2013-03-29 11:47:00,
2013-03-29 07:53:00,39.3,27.0,30.26,SW,228,1.5,3.0,61,0.00,NA,NA,0.00,WeatherLink_script,2013-03-29 11:53:00,
2013-03-29 07:58:00,39.5,27.1,30.26,SW,228,1.0,2.0,61,0.00,NA,NA,0.00,WeatherLink_script,2013-03-29 11:58:00,
2013-03-29 08:03:00,39.6,27.7,30.26,SW,228,1.6,3.0,62,0.00,NA,NA,0.00,WeatherLink_script,2013-03-29 12:03:00,
2013-03-29 08:09:00,39.7,27.4,30.26,SW,228,1.2,2.0,61,0.00,NA,NA,0.00,WeatherLink_script,2013-03-29 12:09:00,
2013-03-29 08:14:00,40.0,27.2,30.26,SW,228,0.9,2.0,60,0.00,NA,NA,0.00,WeatherLink_script,2013-03-29 12:14:00,
2013-03-29 08:19:00,40.1,27.4,30.26,SW,228,1.7,3.0,60,0.00,NA,NA,0.00,WeatherLink_script,2013-03-29 12:19:00,
2013-03-29 08:24:00,40.4,27.6,30.27,SW,228,1.0,2.0,60,0.00,NA,NA,0.00,WeatherLink_script,2013-03-29 12:24:00,
2013-03-29 08:29:00,40.6,27.4,30.27,SW,228,1.0,3.0,59,0.00,NA,NA,0.00,WeatherLink_script,2013-03-29 12:29:00,
2013-03-29 08:34:00,40.9,27.3,30.27,SW,228,1.3,2.0,58,0.00,NA,NA,0.00,WeatherLink_script,2013-03-29 12:34:00,
2013-03-29 08:39:00,41.2,27.1,30.27,SW,228,1.0,2.0,57,0.00,NA,NA,0.00,WeatherLink_script,2013-03-29 12:39:00,
2013-03-29 08:44:00,41.4,27.7,30.26,SW,228,1.6,3.0,58,0.00,NA,NA,0.00,WeatherLink_script,2013-03-29 12:44:00,
2013-03-29 08:49:00,41.6,27.9,30.27,SW,228,1.5,2.0,58,0.00,NA,NA,0.00,WeatherLink_script,2013-03-29 12:49:00,
2013-03-29 08:54:00,41.7,28.0,30.27,SW,228,0.4,2.0,58,0.00,NA,NA,0.00,WeatherLink_script,2013-03-29 12:54:00,
2013-03-29 08:59:00,41.9,27.8,30.27,SW,228,0.4,2.0,57,0.00,NA,NA,0.00,WeatherLink_script,2013-03-29 12:59:00,
2013-03-29 09:04:00,42.1,28.4,30.27,SW,228,0.2,1.0,58,0.00,NA,NA,0.00,WeatherLink_script,2013-03-29 13:04:00,
2013-03-29 09:09:00,42.3,28.2,30.27,SW,228,0.6,2.0,57,0.00,NA,NA,0.00,WeatherLink_script,2013-03-29 13:09:00,
2013-03-29 09:14:00,42.6,29.3,30.26,SW,228,0.9,2.0,59,0.00,NA,NA,0.00,WeatherLink_script,2013-03-29 13:14:00,
2013-03-29 09:19:00,42.9,29.5,30.27,SW,228,0.4,1.0,59,0.00,NA,NA,0.00,WeatherLink_script,2013-03-29 13:19:00,
2013-03-29 09:24:00,43.2,29.0,30.27,SW,236,1.5,5.0,57,0.00,NA,NA,0.00,WeatherLink_script,2013-03-29 13:24:00,
2013-03-29 09:29:00,43.3,29.5,30.27,WSW,239,0.8,2.0,58,0.00,NA,NA,0.00,WeatherLink_script,2013-03-29 13:29:00,
2013-03-29 09:34:00,43.6,29.4,30.27,WSW,239,1.5,3.0,57,0.00,NA,NA,0.00,WeatherLink_script,2013-03-29 13:34:00,
2013-03-29 09:39:00,44.0,29.8,30.27,WSW,239,1.5,3.0,57,0.00,NA,NA,0.00,WeatherLink_script,2013-03-29 13:39:00,
2013-03-29 09:44:00,44.2,29.5,30.26,WSW,239,1.1,2.0,56,0.00,NA,NA,0.00,WeatherLink_script,2013-03-29 13:44:00,
2013-03-29 09:49:00,44.5,29.8,30.26,WSW,239,1.2,3.0,56,0.00,NA,NA,0.00,WeatherLink_script,2013-03-29 13:49:00,
2013-03-29 09:54:00,45.0,29.4,30.26,WSW,239,1.0,2.0,54,0.00,NA,NA,0.00,WeatherLink_script,2013-03-29 13:54:00,
2013-03-29 09:59:00,45.8,29.2,30.26,WSW,239,1.5,3.0,52,0.00,NA,NA,0.00,WeatherLink_script,2013-03-29 13:59:00,
2013-03-29 10:04:00,46.4,30.2,30.26,WSW,239,0.7,2.0,53,0.00,NA,NA,0.00,WeatherLink_script,2013-03-29 14:04:00,
2013-03-29 10:09:00,46.8,28.7,30.26,WNW,291,1.1,2.0,49,0.00,NA,NA,0.00,WeatherLink_script,2013-03-29 14:09:00,
2013-03-29 10:14:00,47.2,29.6,30.26,WNW,286,0.6,2.0,50,0.00,NA,NA,0.00,WeatherLink_script,2013-03-29 14:14:00,
2013-03-29 10:19:00,47.4,29.2,30.25,North,359,3.0,4.0,49,0.00,NA,NA,0.00,WeatherLink_script,2013-03-29 14:19:00,
2013-03-29 10:24:00,47.8,29.1,30.25,NNE,33,1.8,3.0,48,0.00,NA,NA,0.00,WeatherLink_script,2013-03-29 14:24:00,
2013-03-29 10:29:00,48.2,29.9,30.26,NNE,24,2.7,5.0,49,0.00,NA,NA,0.00,WeatherLink_script,2013-03-29 14:29:00,
2013-03-29 10:34:00,48.4,29.1,30.26,NNW,334,2.8,4.0,47,0.00,NA,NA,0.00,WeatherLink_script,2013-03-29 14:34:00,
2013-03-29 10:39:00,48.6,30.3,30.26,North,357,2.8,4.0,49,0.00,NA,NA,0.00,WeatherLink_script,2013-03-29 14:39:00,
2013-03-29 10:44:00,48.9,29.6,30.26,NNW,340,3.8,5.0,47,0.00,NA,NA,0.00,WeatherLink_script,2013-03-29 14:44:00,
2013-03-29 10:49:00,48.9,29.6,30.26,NNW,328,1.0,3.0,47,0.00,NA,NA,0.00,WeatherLink_script,2013-03-29 14:49:00,
2013-03-29 10:54:00,48.9,29.6,30.25,North,8,4.0,5.0,47,0.00,NA,NA,0.00,WeatherLink_script,2013-03-29 14:54:00,
2013-03-29 10:59:00,49.0,29.7,30.25,NE,45,1.4,3.0,47,0.00,NA,NA,0.00,WeatherLink_script,2013-03-29 14:59:00,
2013-03-29 11:04:00,49.3,29.9,30.25,WNW,291,2.5,3.0,47,0.00,NA,NA,0.00,WeatherLink_script,2013-03-29 15:04:00,
2013-03-29 11:09:00,49.8,29.8,30.25,NNE,23,1.9,4.0,46,0.00,NA,NA,0.00,WeatherLink_script,2013-03-29 15:09:00,
2013-03-29 11:14:00,50.2,30.2,30.25,NNW,336,2.9,4.0,46,0.00,NA,NA,0.00,WeatherLink_script,2013-03-29 15:14:00,
2013-03-29 11:19:00,50.5,30.0,30.25,NW,324,2.8,4.0,45,0.00,NA,NA,0.00,WeatherLink_script,2013-03-29 15:19:00,
2013-03-29 11:24:00,50.5,30.0,30.25,NW,320,3.3,5.0,45,0.00,NA,NA,0.00,WeatherLink_script,2013-03-29 15:24:00,
2013-03-29 11:29:00,50.6,30.0,30.25,NNW,332,3.3,5.0,45,0.00,NA,NA,0.00,WeatherLink_script,2013-03-29 15:29:00,
2013-03-29 11:34:00,50.6,30.6,30.25,NW,305,4.0,5.0,46,0.00,NA,NA,0.00,WeatherLink_script,2013-03-29 15:34:00,
2013-03-29 11:39:00,50.9,30.3,30.25,NW,316,3.3,6.0,45,0.00,NA,NA,0.00,WeatherLink_script,2013-03-29 15:39:00,
2013-03-29 11:44:00,51.3,30.2,30.25,WNW,293,4.0,6.0,44,0.00,NA,NA,0.00,WeatherLink_script,2013-03-29 15:44:00,
2013-03-29 11:50:00,51.8,30.6,30.24,West,266,3.1,5.0,44,0.00,NA,NA,0.00,WeatherLink_script,2013-03-29 15:50:00,
2013-03-29 11:55:00,52.1,31.4,30.24,West,260,2.1,5.0,45,0.00,NA,NA,0.00,WeatherLink_script,2013-03-29 15:55:00,
2013-03-29 12:00:00,52.3,30.5,30.24,WNW,289,3.3,6.0,43,0.00,NA,NA,0.00,WeatherLink_script,2013-03-29 16:00:00,
2013-03-29 12:05:00,52.3,31.0,30.24,NW,313,3.2,5.0,44,0.00,NA,NA,0.00,WeatherLink_script,2013-03-29 16:05:00,
2013-03-29 12:10:00,52.1,30.3,30.24,WNW,298,2.9,7.0,43,0.00,NA,NA,0.00,WeatherLink_script,2013-03-29 16:10:00,
2013-03-29 12:15:00,52.3,30.5,30.24,NW,310,3.6,5.0,43,0.00,NA,NA,0.00,WeatherLink_script,2013-03-29 16:15:00,
2013-03-29 12:20:00,52.1,29.7,30.24,WNW,289,2.9,5.0,42,0.00,NA,NA,0.00,WeatherLink_script,2013-03-29 16:20:00,
2013-03-29 12:25:00,51.4,29.1,30.24,WNW,291,1.4,2.0,42,0.00,NA,NA,0.00,WeatherLink_script,2013-03-29 16:25:00,
2013-03-29 12:30:00,51.2,30.1,30.23,WNW,297,1.6,2.0,44,0.00,NA,NA,0.00,WeatherLink_script,2013-03-29 16:30:00,
2013-03-29 12:35:00,51.1,30.5,30.23,NW,326,1.9,3.0,45,0.00,NA,NA,0.00,WeatherLink_script,2013-03-29 16:35:00,
2013-03-29 12:40:00,51.1,30.5,30.23,NW,326,0.7,2.0,45,0.00,NA,NA,0.00,WeatherLink_script,2013-03-29 16:40:00,
2013-03-29 12:45:00,51.1,28.8,30.23,ENE,72,3.7,5.0,42,0.00,NA,NA,0.00,WeatherLink_script,2013-03-29 16:45:00,
2013-03-29 12:50:00,50.7,29.6,30.23,ENE,58,1.5,3.0,44,0.00,NA,NA,0.00,WeatherLink_script,2013-03-29 16:50:00,
2013-03-29 12:55:00,50.8,29.2,30.23,ENE,57,0.9,1.0,43,0.00,NA,NA,0.00,WeatherLink_script,2013-03-29 16:55:00,
2013-03-29 13:00:00,50.9,28.6,30.22,WNW,290,1.6,2.0,42,0.00,NA,NA,0.00,WeatherLink_script,2013-03-29 17:00:00,
2013-03-29 13:05:00,51.1,28.2,30.22,WNW,295,2.8,5.0,41,0.00,NA,NA,0.00,WeatherLink_script,2013-03-29 17:05:00,
2013-03-29 13:10:00,52.0,28.5,30.22,WNW,286,3.9,7.0,40,0.00,NA,NA,0.00,WeatherLink_script,2013-03-29 17:10:00,
2013-03-29 13:15:00,52.4,28.2,30.22,West,266,2.2,4.0,39,0.00,NA,NA,0.00,WeatherLink_script,2013-03-29 17:15:00,
2013-03-29 13:20:00,52.7,27.8,30.22,NW,325,1.3,2.0,38,0.00,NA,NA,0.00,WeatherLink_script,2013-03-29 17:20:00,
2013-03-29 13:25:00,52.7,27.2,30.22,North,349,3.5,6.0,37,0.00,NA,NA,0.00,WeatherLink_script,2013-03-29 17:25:00,
2013-03-29 13:30:00,52.1,27.3,30.21,North,350,4.8,7.0,38,0.00,NA,NA,0.00,WeatherLink_script,2013-03-29 17:30:00,
2013-03-29 13:35:00,52.0,27.2,30.21,ENE,76,2.2,4.0,38,0.00,NA,NA,0.00,WeatherLink_script,2013-03-29 17:35:00,
2013-03-29 13:40:00,52.6,27.8,30.21,WSW,251,6.0,9.0,38,0.00,NA,NA,0.00,WeatherLink_script,2013-03-29 17:40:00,
2013-03-29 13:45:00,52.8,27.9,30.21,WNW,298,2.7,4.0,38,0.00,NA,NA,0.00,WeatherLink_script,2013-03-29 17:45:00,
2013-03-29 13:50:00,53.3,28.3,30.21,NNW,332,2.8,4.0,38,0.00,NA,NA,0.00,WeatherLink_script,2013-03-29 17:50:00,
2013-03-29 13:55:00,53.4,27.8,30.20,NW,306,4.1,5.0,37,0.00,NA,NA,0.00,WeatherLink_script,2013-03-29 17:55:00,
2013-03-29 14:00:00,53.9,27.6,30.20,West,264,4.9,7.0,36,0.00,NA,NA,0.00,WeatherLink_script,2013-03-29 18:00:00,
2013-03-29 14:05:00,54.2,28.5,30.19,NW,308,3.3,4.0,37,0.00,NA,NA,0.00,WeatherLink_script,2013-03-29 18:05:00,
2013-03-29 14:10:00,54.2,28.5,30.19,NW,319,4.2,5.0,37,0.00,NA,NA,0.00,WeatherLink_script,2013-03-29 18:10:00,
2013-03-29 14:15:00,54.6,28.1,30.19,West,260,2.7,5.0,36,0.00,NA,NA,0.00,WeatherLink_script,2013-03-29 18:15:00,
2013-03-29 14:20:00,55.0,29.9,30.19,WSW,249,2.9,5.0,38,0.00,NA,NA,0.00,WeatherLink_script,2013-03-29 18:20:00,
2013-03-29 14:26:00,55.5,29.0,30.19,North,359,1.5,2.0,36,0.00,NA,NA,0.00,WeatherLink_script,2013-03-29 18:26:00,
2013-03-29 14:31:00,55.2,27.3,30.18,North,358,3.9,5.0,34,0.00,NA,NA,0.00,WeatherLink_script,2013-03-29 18:31:00,
2013-03-29 14:36:00,54.7,27.6,30.18,NNE,26,1.2,2.0,35,0.00,NA,NA,0.00,WeatherLink_script,2013-03-29 18:36:00,
2013-03-29 14:41:00,54.3,27.9,30.17,NNW,339,3.0,5.0,36,0.00,NA,NA,0.00,WeatherLink_script,2013-03-29 18:41:00,
2013-03-29 14:46:00,54.0,27.6,30.17,North,352,3.9,5.0,36,0.00,NA,NA,0.00,WeatherLink_script,2013-03-29 18:46:00,
2013-03-29 14:51:00,53.6,26.6,30.18,NW,305,5.1,8.0,35,0.00,NA,NA,0.00,WeatherLink_script,2013-03-29 18:51:00,
2013-03-29 14:56:00,53.8,28.2,30.18,WNW,288,6.7,11.0,37,0.00,NA,NA,0.00,WeatherLink_script,2013-03-29 18:56:00,
2013-03-29 15:01:00,55.0,28.5,30.17,WSW,256,2.9,6.0,36,0.00,NA,NA,0.00,WeatherLink_script,2013-03-29 19:01:00,
2013-03-29 15:06:00,55.8,28.6,30.17,WSW,245,2.9,5.0,35,0.00,NA,NA,0.00,WeatherLink_script,2013-03-29 19:06:00,
2013-03-29 15:11:00,56.5,27.7,30.16,SW,225,4.3,7.0,33,0.00,NA,NA,0.00,WeatherLink_script,2013-03-29 19:11:00,
2013-03-29 15:16:00,56.7,27.2,30.16,WSW,257,3.1,5.0,32,0.00,NA,NA,0.00,WeatherLink_script,2013-03-29 19:16:00,
2013-03-29 15:21:00,57.1,26.8,30.17,WNW,303,4.5,7.0,31,0.00,NA,NA,0.00,WeatherLink_script,2013-03-29 19:21:00,
2013-03-29 15:26:00,57.1,27.5,30.16,WNW,293,3.3,5.0,32,0.00,NA,NA,0.00,WeatherLink_script,2013-03-29 19:26:00,
2013-03-29 15:31:00,57.3,26.1,30.16,WNW,294,3.6,5.0,30,0.00,NA,NA,0.00,WeatherLink_script,2013-03-29 19:31:00,
2013-03-29 15:36:00,57.2,26.0,30.16,NW,307,4.8,7.0,30,0.00,NA,NA,0.00,WeatherLink_script,2013-03-29 19:36:00,
2013-03-29 15:41:00,57.0,25.9,30.16,North,11,6.4,9.0,30,0.00,NA,NA,0.00,WeatherLink_script,2013-03-29 19:41:00,
2013-03-29 15:46:00,56.1,25.1,30.15,NW,324,3.2,6.0,30,0.00,NA,NA,0.00,WeatherLink_script,2013-03-29 19:46:00,
2013-03-29 15:51:00,55.3,24.4,30.16,NNW,336,3.8,6.0,30,0.00,NA,NA,0.00,WeatherLink_script,2013-03-29 19:51:00,
2013-03-29 15:56:00,54.9,25.6,30.16,NNW,344,3.3,6.0,32,0.00,NA,NA,0.00,WeatherLink_script,2013-03-29 19:56:00,
2013-03-29 16:01:00,54.8,26.3,30.15,NW,304,5.6,8.0,33,0.00,NA,NA,0.00,WeatherLink_script,2013-03-29 20:01:00,
2013-03-29 16:07:00,54.3,27.2,30.14,West,267,3.6,5.0,35,0.00,NA,NA,0.00,WeatherLink_script,2013-03-29 20:07:00,
2013-03-29 16:12:00,55.0,27.2,30.14,NW,311,4.2,5.0,34,0.00,NA,NA,0.00,WeatherLink_script,2013-03-29 20:12:00,
2013-03-29 16:17:00,54.9,26.3,30.14,NW,311,2.8,4.0,33,0.00,NA,NA,0.00,WeatherLink_script,2013-03-29 20:17:00,
2013-03-29 16:22:00,54.6,26.1,30.15,NW,311,3.2,5.0,33,0.00,NA,NA,0.00,WeatherLink_script,2013-03-29 20:22:00,
2013-03-29 16:28:00,54.3,25.1,30.15,North,353,2.9,4.0,32,0.00,NA,NA,0.00,WeatherLink_script,2013-03-29 20:28:00,
2013-03-29 16:33:00,53.9,25.5,30.14,WNW,299,3.9,5.0,33,0.00,NA,NA,0.00,WeatherLink_script,2013-03-29 20:33:00,
2013-03-29 16:38:00,53.9,25.5,30.14,West,280,2.8,5.0,33,0.00,NA,NA,0.00,WeatherLink_script,2013-03-29 20:38:00,
2013-03-29 16:43:00,54.0,25.6,30.14,WNW,295,1.7,3.0,33,0.00,NA,NA,0.00,WeatherLink_script,2013-03-29 20:43:00,
2013-03-29 16:48:00,54.5,26.0,30.14,WNW,282,3.2,5.0,33,0.00,NA,NA,0.00,WeatherLink_script,2013-03-29 20:48:00,
2013-03-29 16:53:00,55.1,24.3,30.14,North,0,0.5,2.0,30,0.00,NA,NA,0.00,WeatherLink_script,2013-03-29 20:53:00,
2013-03-29 16:58:00,55.6,26.9,30.14,WNW,286,3.1,4.0,33,0.00,NA,NA,0.00,WeatherLink_script,2013-03-29 20:58:00,
2013-03-29 17:03:00,56.3,25.3,30.14,WNW,295,4.0,6.0,30,0.00,NA,NA,0.00,WeatherLink_script,2013-03-29 21:03:00,
2013-03-29 17:08:00,56.5,26.2,30.13,North,350,3.4,4.0,31,0.00,NA,NA,0.00,WeatherLink_script,2013-03-29 21:08:00,
2013-03-29 17:13:00,56.2,24.4,30.13,WNW,302,4.7,7.0,29,0.00,NA,NA,0.00,WeatherLink_script,2013-03-29 21:13:00,
2013-03-29 17:18:00,55.9,26.5,30.14,NW,315,3.5,5.0,32,0.00,NA,NA,0.00,WeatherLink_script,2013-03-29 21:18:00,
2013-03-29 17:23:00,55.8,26.4,30.14,NNE,22,3.4,5.0,32,0.00,NA,NA,0.00,WeatherLink_script,2013-03-29 21:23:00,
2013-03-29 17:28:00,55.9,24.9,30.14,NNW,335,1.5,3.0,30,0.00,NA,NA,0.00,WeatherLink_script,2013-03-29 21:28:00,
2013-03-29 17:33:00,55.9,25.7,30.13,NNW,335,2.1,3.0,31,0.00,NA,NA,0.00,WeatherLink_script,2013-03-29 21:33:00,
2013-03-29 17:38:00,55.9,25.7,30.13,WNW,291,1.6,3.0,31,0.00,NA,NA,0.00,WeatherLink_script,2013-03-29 21:38:00,
2013-03-29 17:43:00,55.9,26.5,30.13,WNW,293,2.1,3.0,32,0.00,NA,NA,0.00,WeatherLink_script,2013-03-29 21:43:00,
2013-03-29 17:48:00,55.9,26.5,30.14,WNW,294,1.2,3.0,32,0.00,NA,NA,0.00,WeatherLink_script,2013-03-29 21:48:00,
2013-03-29 17:53:00,55.9,25.7,30.14,ENE,58,1.3,3.0,31,0.00,NA,NA,0.00,WeatherLink_script,2013-03-29 21:53:00,
2013-03-29 17:58:00,55.8,24.8,30.14,North,4,4.3,7.0,30,0.00,NA,NA,0.00,WeatherLink_script,2013-03-29 21:58:00,
2013-03-29 18:03:00,55.4,24.5,30.14,NNW,345,4.2,5.0,30,0.00,NA,NA,0.00,WeatherLink_script,2013-03-29 22:03:00,
2013-03-29 18:08:00,55.0,25.7,30.14,North,359,3.2,5.0,32,0.00,NA,NA,0.00,WeatherLink_script,2013-03-29 22:08:00,
2013-03-29 18:13:00,54.6,26.1,30.14,North,9,3.0,4.0,33,0.00,NA,NA,0.00,WeatherLink_script,2013-03-29 22:13:00,
2013-03-29 18:18:00,54.3,25.1,30.14,North,0,4.6,6.0,32,0.00,NA,NA,0.00,WeatherLink_script,2013-03-29 22:18:00,
2013-03-29 18:23:00,54.1,24.9,30.14,North,359,3.8,5.0,32,0.00,NA,NA,0.00,WeatherLink_script,2013-03-29 22:23:00,
2013-03-29 18:28:00,53.9,25.5,30.15,North,359,1.8,3.0,33,0.00,NA,NA,0.00,WeatherLink_script,2013-03-29 22:28:00,
2013-03-29 18:33:00,53.8,25.4,30.14,North,349,2.1,3.0,33,0.00,NA,NA,0.00,WeatherLink_script,2013-03-29 22:33:00,
2013-03-29 18:38:00,53.7,24.5,30.14,North,350,1.0,2.0,32,0.00,NA,NA,0.00,WeatherLink_script,2013-03-29 22:38:00,
2013-03-29 18:43:00,53.6,25.9,30.14,North,350,1.0,2.0,34,0.00,NA,NA,0.00,WeatherLink_script,2013-03-29 22:43:00,
2013-03-29 18:48:00,53.4,25.8,30.15,North,350,1.0,2.0,34,0.00,NA,NA,0.00,WeatherLink_script,2013-03-29 22:48:00,
2013-03-29 18:53:00,53.3,24.9,30.15,North,350,1.2,3.0,33,0.00,NA,NA,0.00,WeatherLink_script,2013-03-29 22:53:00,
2013-03-29 18:58:00,53.0,25.4,30.15,NNE,13,4.2,6.0,34,0.00,NA,NA,0.00,WeatherLink_script,2013-03-29 22:58:00,
2013-03-29 19:03:00,52.8,25.9,30.14,North,4,3.6,5.0,35,0.00,NA,NA,0.00,WeatherLink_script,2013-03-29 23:03:00,
2013-03-29 19:08:00,52.6,25.7,30.15,North,2,4.8,7.0,35,0.00,NA,NA,0.00,WeatherLink_script,2013-03-29 23:08:00,
2013-03-29 19:13:00,52.4,25.5,30.15,NNE,13,4.1,5.0,35,0.00,NA,NA,0.00,WeatherLink_script,2013-03-29 23:13:00,
2013-03-29 19:18:00,52.0,25.2,30.15,North,3,5.6,7.0,35,0.00,NA,NA,0.00,WeatherLink_script,2013-03-29 23:18:00,
2013-03-29 19:23:00,51.8,25.7,30.15,NNE,31,3.4,5.0,36,0.00,NA,NA,0.00,WeatherLink_script,2013-03-29 23:23:00,
2013-03-29 19:28:00,51.7,24.9,30.15,NE,37,3.2,4.0,35,0.00,NA,NA,0.00,WeatherLink_script,2013-03-29 23:28:00,
2013-03-29 19:33:00,51.5,25.4,30.15,NNE,19,2.3,3.0,36,0.00,NA,NA,0.00,WeatherLink_script,2013-03-29 23:33:00,
2013-03-29 19:38:00,51.2,25.2,30.15,North,6,2.1,4.0,36,0.00,NA,NA,0.00,WeatherLink_script,2013-03-29 23:38:00,
2013-03-29 19:43:00,51.1,25.1,30.15,North,7,2.4,4.0,36,0.00,NA,NA,0.00,WeatherLink_script,2013-03-29 23:43:00,
2013-03-29 19:49:00,50.9,24.9,30.16,NNE,26,2.9,4.0,36,0.00,NA,NA,0.00,WeatherLink_script,2013-03-29 23:49:00,
2013-03-29 19:54:00,50.7,24.7,30.16,NNE,30,1.2,2.0,36,0.00,NA,NA,0.00,WeatherLink_script,2013-03-29 23:54:00,
2013-03-29 19:59:00,50.6,24.7,30.16,NNE,30,0.6,1.0,36,0.00,NA,NA,0.00,WeatherLink_script,2013-03-29 23:59:00,
2013-03-29 20:04:00,50.5,24.6,30.16,NNE,30,1.5,2.0,36,0.00,NA,NA,0.00,WeatherLink_script,2013-03-30 00:04:00,
2013-03-29 20:10:00,50.4,25.1,30.16,NNE,30,1.9,2.0,37,0.00,NA,NA,0.00,WeatherLink_script,2013-03-30 00:10:00,
2013-03-29 20:15:00,50.2,24.9,30.16,NNE,30,1.8,4.0,37,0.00,NA,NA,0.00,WeatherLink_script,2013-03-30 00:15:00,
2013-03-29 20:21:00,50.1,24.9,30.17,NNE,30,2.4,3.0,37,0.00,NA,NA,0.00,WeatherLink_script,2013-03-30 00:21:00,
2013-03-29 20:26:00,50.1,24.8,30.17,NNE,26,2.4,3.0,37,0.00,NA,NA,0.00,WeatherLink_script,2013-03-30 00:26:00,
2013-03-29 20:31:00,49.9,24.7,30.16,NNE,26,2.3,5.0,37,0.00,NA,NA,0.00,WeatherLink_script,2013-03-30 00:31:00,
2013-03-29 20:36:00,49.8,24.6,30.17,NNE,26,2.5,4.0,37,0.00,NA,NA,0.00,WeatherLink_script,2013-03-30 00:36:00,
2013-03-29 20:41:00,49.6,24.4,30.17,NNE,26,2.1,3.0,37,0.00,NA,NA,0.00,WeatherLink_script,2013-03-30 00:41:00,
2013-03-29 20:46:00,49.5,24.3,30.17,NNE,26,2.5,4.0,37,0.00,NA,NA,0.00,WeatherLink_script,2013-03-30 00:46:00,
2013-03-29 20:51:00,49.5,24.3,30.18,NNE,26,1.8,3.0,37,0.00,NA,NA,0.00,WeatherLink_script,2013-03-30 00:51:00,
2013-03-29 20:56:00,49.5,24.3,30.18,NNE,26,2.8,4.0,37,0.00,NA,NA,0.00,WeatherLink_script,2013-03-30 00:56:00,
2013-03-29 21:01:00,49.5,24.3,30.18,NNE,14,2.0,3.0,37,0.00,NA,NA,0.00,WeatherLink_script,2013-03-30 01:01:00,
2013-03-29 21:06:00,49.3,24.2,30.18,NNE,14,1.9,3.0,37,0.00,NA,NA,0.00,WeatherLink_script,2013-03-30 01:06:00,
2013-03-29 21:11:00,49.3,24.1,30.18,NNE,14,1.6,3.0,37,0.00,NA,NA,0.00,WeatherLink_script,2013-03-30 01:11:00,
2013-03-29 21:16:00,49.3,24.1,30.18,NNE,14,1.2,2.0,37,0.00,NA,NA,0.00,WeatherLink_script,2013-03-30 01:16:00,
2013-03-29 21:21:00,49.2,24.0,30.19,NNE,14,1.1,2.0,37,0.00,NA,NA,0.00,WeatherLink_script,2013-03-30 01:21:00,
2013-03-29 21:26:00,49.1,24.0,30.19,NNE,14,2.2,3.0,37,0.00,NA,NA,0.00,WeatherLink_script,2013-03-30 01:26:00,
2013-03-29 21:32:00,49.1,23.3,30.19,NNE,14,2.7,4.0,36,0.00,NA,NA,0.00,WeatherLink_script,2013-03-30 01:32:00,
2013-03-29 21:37:00,49.0,23.3,30.19,NNE,14,2.6,3.0,36,0.00,NA,NA,0.00,WeatherLink_script,2013-03-30 01:37:00,
2013-03-29 21:42:00,49.1,23.3,30.19,NNE,19,3.4,4.0,36,0.00,NA,NA,0.00,WeatherLink_script,2013-03-30 01:42:00,
2013-03-29 21:48:00,49.0,23.3,30.19,NNE,19,2.9,4.0,36,0.00,NA,NA,0.00,WeatherLink_script,2013-03-30 01:48:00,
2013-03-29 21:53:00,49.0,23.2,30.20,NNE,17,3.7,5.0,36,0.00,NA,NA,0.00,WeatherLink_script,2013-03-30 01:53:00,
2013-03-29 21:58:00,49.0,23.3,30.19,NNE,17,2.8,5.0,36,0.00,NA,NA,0.00,WeatherLink_script,2013-03-30 01:58:00,
2013-03-29 22:03:00,48.9,23.1,30.20,NNE,18,3.2,5.0,36,0.00,NA,NA,0.00,WeatherLink_script,2013-03-30 02:03:00,
2013-03-29 22:08:00,48.9,23.1,30.20,NNE,17,3.3,5.0,36,0.00,NA,NA,0.00,WeatherLink_script,2013-03-30 02:08:00,
2013-03-29 22:14:00,48.9,23.1,30.20,NNE,17,2.9,4.0,36,0.00,NA,NA,0.00,WeatherLink_script,2013-03-30 02:14:00,
2013-03-29 22:19:00,48.9,23.1,30.20,NNE,16,2.7,4.0,36,0.00,NA,NA,0.00,WeatherLink_script,2013-03-30 02:19:00,
2013-03-29 22:24:00,48.8,23.0,30.21,NNE,16,2.2,3.0,36,0.00,NA,NA,0.00,WeatherLink_script,2013-03-30 02:24:00,
2013-03-29 22:29:00,48.7,23.6,30.20,NNE,15,2.1,3.0,37,0.00,NA,NA,0.00,WeatherLink_script,2013-03-30 02:29:00,
2013-03-29 22:34:00,48.3,23.9,30.20,North,4,3.8,5.0,38,0.00,NA,NA,0.00,WeatherLink_script,2013-03-30 02:34:00,
2013-03-29 22:39:00,48.2,23.8,30.20,North,359,3.6,5.0,38,0.00,NA,NA,0.00,WeatherLink_script,2013-03-30 02:39:00,
2013-03-29 22:44:00,48.0,24.2,30.20,North,359,2.6,4.0,39,0.00,NA,NA,0.00,WeatherLink_script,2013-03-30 02:44:00,
2013-03-29 22:49:00,47.8,24.0,30.21,North,359,1.0,2.0,39,0.00,NA,NA,0.00,WeatherLink_script,2013-03-30 02:49:00,
2013-03-29 22:54:00,47.4,23.7,30.21,North,359,0.0,0.0,39,0.00,NA,NA,0.00,WeatherLink_script,2013-03-30 02:54:00,
2013-03-29 22:59:00,47.2,23.5,30.21,North,359,0.0,0.0,39,0.00,NA,NA,0.00,WeatherLink_script,2013-03-30 02:59:00,
2013-03-29 23:04:00,47.0,23.3,30.20,North,359,0.2,1.0,39,0.00,NA,NA,0.00,WeatherLink_script,2013-03-30 03:04:00,
2013-03-29 23:09:00,46.8,23.8,30.21,WNW,294,1.4,3.0,40,0.00,NA,NA,0.00,WeatherLink_script,2013-03-30 03:09:00,
2013-03-29 23:14:00,46.8,23.8,30.20,NW,308,1.6,2.0,40,0.00,NA,NA,0.00,WeatherLink_script,2013-03-30 03:14:00,
2013-03-29 23:19:00,46.8,23.8,30.21,NW,308,0.3,1.0,40,0.00,NA,NA,0.00,WeatherLink_script,2013-03-30 03:19:00,
2013-03-29 23:24:00,46.7,23.7,30.21,NW,308,1.2,2.0,40,0.00,NA,NA,0.00,WeatherLink_script,2013-03-30 03:24:00,
2013-03-29 23:30:00,46.5,23.5,30.21,NW,308,0.9,2.0,40,0.00,NA,NA,0.00,WeatherLink_script,2013-03-30 03:30:00,
2013-03-29 23:35:00,46.5,23.5,30.21,NW,308,0.7,2.0,40,0.00,NA,NA,0.00,WeatherLink_script,2013-03-30 03:35:00,
2013-03-29 23:40:00,46.4,24.0,30.20,NW,308,1.3,3.0,41,0.00,NA,NA,0.00,WeatherLink_script,2013-03-30 03:40:00,
2013-03-29 23:45:00,46.4,24.0,30.21,NW,308,0.6,2.0,41,0.00,NA,NA,0.00,WeatherLink_script,2013-03-30 03:45:00,
2013-03-29 23:50:00,46.1,23.7,30.21,NW,308,0.4,1.0,41,0.00,NA,NA,0.00,WeatherLink_script,2013-03-30 03:50:00,
2013-03-29 23:55:00,46.0,24.2,30.21,NW,308,1.5,3.0,42,0.00,NA,NA,0.00,WeatherLink_script,2013-03-30 03:55:00,